TimePST,TemperatureF,Dew PointF,Humidity,Sea Level PressureIn,VisibilityMPH,Wind Direction,Wind SpeedMPH,Gust SpeedMPH,PrecipitationIn,Events,Conditions,WindDirDegrees,DateUTC
12:53 AM,61.0,46.0,58,30.08,10.0,West,3.5,-,N/A,,Scattered Clouds,280,2013-02-03 08:53:00
1:53 AM,61.0,46.0,58,30.06,10.0,WNW,4.6,-,N/A,,Overcast,300,2013-02-03 09:53:00
2:53 AM,61.0,46.9,60,30.06,10.0,West,6.9,-,N/A,,Mostly Cloudy,260,2013-02-03 10:53:00
3:53 AM,60.8,48.2,63,30.05,10.0,Calm,Calm,-,N/A,Rain,Light Rain,0,2013-02-03 11:53:00
4:53 AM,64.0,46.0,52,30.04,10.0,NNE,4.6,-,0.00,Rain,Light Rain,20,2013-02-03 12:53:00
5:53 AM,61.0,50.0,67,30.06,10.0,Calm,Calm,-,0.00,,Overcast,0,2013-02-03 13:53:00
6:53 AM,60.1,52.0,75,30.07,10.0,WSW,3.5,-,N/A,,Overcast,250,2013-02-03 14:53:00
7:53 AM,62.1,51.1,67,30.08,10.0,Calm,Calm,-,N/A,,Overcast,0,2013-02-03 15:53:00
8:53 AM,64.9,48.9,56,30.08,10.0,NW,3.5,-,N/A,,Overcast,310,2013-02-03 16:53:00
9:53 AM,71.1,45.0,39,30.07,10.0,North,5.8,-,N/A,,Mostly Cloudy,350,2013-02-03 17:53:00
10:53 AM,72.0,45.0,38,30.05,10.0,NNW,3.5,-,N/A,,Clear,330,2013-02-03 18:53:00
11:53 AM,73.9,43.0,33,30.01,10.0,NNW,4.6,-,N/A,,Clear,340,2013-02-03 19:53:00
12:53 PM,75.0,43.0,32,29.98,10.0,NNW,5.8,-,N/A,,Clear,340,2013-02-03 20:53:00
1:53 PM,77.0,41.0,28,29.96,10.0,North,10.4,-,N/A,,Clear,360,2013-02-03 21:53:00
2:53 PM,75.9,42.1,30,29.95,10.0,NNW,8.1,-,N/A,,Clear,340,2013-02-03 22:53:00
3:53 PM,75.0,42.1,31,29.96,10.0,NNW,6.9,-,N/A,,Clear,330,2013-02-03 23:53:00
4:53 PM,73.0,43.0,34,29.96,10.0,NW,5.8,-,N/A,,Clear,320,2013-02-04 00:53:00
5:53 PM,66.9,45.0,45,29.97,10.0,WNW,3.5,-,N/A,,Scattered Clouds,290,2013-02-04 01:53:00
6:53 PM,66.0,44.1,45,29.97,10.0,Calm,Calm,-,N/A,,Mostly Cloudy,0,2013-02-04 02:53:00
7:53 PM,66.9,43.0,42,29.99,10.0,East,4.6,-,N/A,,Scattered Clouds,90,2013-02-04 03:53:00
8:53 PM,61.0,45.0,56,30.00,10.0,Calm,Calm,-,N/A,,Clear,0,2013-02-04 04:53:00
9:53 PM,59.0,45.0,60,30.00,10.0,SW,3.5,-,N/A,,Clear,230,2013-02-04 05:53:00
10:53 PM,57.0,44.1,62,30.00,10.0,SW,4.6,-,N/A,,Clear,230,2013-02-04 06:53:00
11:53 PM,55.9,45.0,67,29.99,10.0,Calm,Calm,-,N/A,,Clear,0,2013-02-04 07:53:00